Home   Weather   Campbell River   Past weeks

Flag for Canada Past Weather in Campbell River, British Columbia, Canada — Yesterday and Last 2 Weeks

Now
43 °F

Fog.


Feels Like: 43 °F
Forecast: 45 / 60 °F
Wind: 2 mph from North

Location: Campbell River Airport

Current Time: Apr 24, 2017 at 6:20:55 am

Latest Report: Apr 24, 2017 at 6:00 am


Visibility: 20 mi

Pressure: 29.75 "Hg

Humidity: 100%

Dew Point: 43 °F

Location of Campbell RiverLocation

Past Weather in Campbell River — Graph

°F

Campbell River Temperature Yesterday

Maximum temperature yesterday: 55 °F (at 4:00 pm)
Minimum temperature yesterday: 39 °F (at 6:00 am)
Average temperature yesterday: 50 °F

High & Low Weather Summary for the Past Weeks

 TemperatureHumidityPressure
High57 °F (Apr 21, 3:00 pm)100% (Apr 9, 6:00 am)30.41 "Hg (Apr 9, 6:00 am)
Low30 °F (Apr 9, 6:00 am)44% (Apr 11, 6:00 pm)29.66 "Hg (Apr 13, 6:00 am)
Average47 °F81%29.96 "Hg
* Reported Apr 8 9:00 pm — Apr 23 9:00 pm, Campbell River, Weather by CustomWeather, © 2017

Note: Actual official high and low records may vary slightly from our data, if they occured in-between our weather recording intervals... More about our weather records

Advertising

Campbell River Weather History for the Previous 24 Hours

Scroll right to see more
 ConditionsComfort  
Time TempWeatherWind HumidityBarometerVisibility
9:00 pm
Sun, Apr 23
48 °FSprinkles. Mostly cloudy.13 mph87%29.74 "Hg10 mi
8:35 pm48 °FSprinkles. Mostly cloudy.12 mph87%29.74 "Hg20 mi
7:00 pm52 °FBroken clouds.10 mph77%29.74 "Hg20 mi
6:42 pm52 °FSprinkles. Broken clouds.10 mph72%29.74 "Hg30 mi
6:00 pm52 °FBroken clouds.13 mph72%29.74 "Hg30 mi
5:00 pm54 °FPartly sunny.13 mph67%29.75 "Hg30 mi
4:00 pm55 °FPartly sunny.7 mph63%29.76 "Hg30 mi
3:00 pm54 °FBroken clouds.15 mph67%29.78 "Hg30 mi
2:00 pm54 °FScattered showers. Broken clouds.15 mph67%29.79 "Hg30 mi
1:00 pm54 °FBroken clouds.16 mph67%29.80 "Hg30 mi
12:00 pm54 °FBroken clouds.12 mph72%29.81 "Hg30 mi
11:00 am54 °FBroken clouds.14 mph77%29.83 "Hg30 mi
10:00 am52 °FBroken clouds.9 mph77%29.83 "Hg20 mi
9:00 am48 °FPartly sunny.No wind87%29.83 "Hg20 mi
8:00 am45 °FMostly cloudy.3 mph93%29.84 "Hg20 mi
7:00 am41 °FMostly cloudy.3 mph100%29.85 "Hg15 mi
6:00 am39 °FMostly cloudy.2 mph100%29.85 "Hg15 mi
Weather by CustomWeather, © 2017

See weather overviewHow to use our weather pages